EIN1B EIDW-EGCC

Flight info

Callsign EIN1B
Flight time N/A
Altitude 19000
Route BOFUM3J BOFUM Q37 MALUD
Aircraft A339/H-SADE1E2E3GHIJ3J5M1P2RWXY/LB2D1

Departure

Time 2026-05-04 23:47
Airport Dublin Airport (EIDW)

Arrival

Time N/A
Airport Manchester Airport (EGCC)
Time Latitude Longitude Altitude Speed Heading
2026-05-04 23:33 53.42288 -6.24330 217 ft 0 kts 323°
2026-05-04 23:33 53.42273 -6.24313 220 ft 4 kts 308°
2026-05-04 23:34 53.42260 -6.24282 217 ft 4 kts 272°
2026-05-04 23:34 53.42261 -6.24242 218 ft 4 kts 241°
2026-05-04 23:34 53.42275 -6.24205 220 ft 3 kts 226°
2026-05-04 23:34 53.42277 -6.24201 223 ft 0 kts 226°
2026-05-04 23:39 53.42277 -6.24202 217 ft 0 kts 226°
2026-05-04 23:39 53.42267 -6.24205 219 ft 3 kts 200°
2026-05-04 23:39 53.42227 -6.24209 217 ft 9 kts 180°
2026-05-04 23:40 53.42168 -6.24259 218 ft 10 kts 234°
2026-05-04 23:40 53.42162 -6.24382 224 ft 11 kts 274°
2026-05-04 23:40 53.42169 -6.24520 217 ft 13 kts 274°
2026-05-04 23:40 53.42179 -6.24671 220 ft 13 kts 284°
2026-05-04 23:41 53.42246 -6.24776 223 ft 14 kts 333°
2026-05-04 23:41 53.42337 -6.24843 223 ft 15 kts 336°
2026-05-04 23:41 53.42434 -6.24911 221 ft 16 kts 339°
2026-05-04 23:41 53.42537 -6.24984 218 ft 16 kts 334°
2026-05-04 23:42 53.42641 -6.25066 222 ft 17 kts 337°
2026-05-04 23:42 53.42733 -6.25184 222 ft 17 kts 318°
2026-05-04 23:42 53.42840 -6.25275 222 ft 17 kts 336°
2026-05-04 23:42 53.42952 -6.25356 224 ft 18 kts 336°
2026-05-04 23:43 53.43067 -6.25441 222 ft 18 kts 336°
2026-05-04 23:43 53.43187 -6.25527 221 ft 19 kts 336°
2026-05-04 23:43 53.43298 -6.25609 221 ft 16 kts 336°
2026-05-04 23:43 53.43395 -6.25606 220 ft 14 kts 49°
2026-05-04 23:44 53.43400 -6.25439 223 ft 15 kts 94°
2026-05-04 23:44 53.43390 -6.25254 223 ft 17 kts 95°
2026-05-04 23:44 53.43378 -6.25054 217 ft 18 kts 95°
2026-05-04 23:44 53.43367 -6.24839 219 ft 19 kts 94°
2026-05-04 23:45 53.43359 -6.24611 224 ft 20 kts 92°
2026-05-04 23:45 53.43346 -6.24371 217 ft 21 kts 97°
2026-05-04 23:45 53.43329 -6.24120 225 ft 22 kts 95°
2026-05-04 23:45 53.43333 -6.23900 223 ft 16 kts 63°
2026-05-04 23:46 53.43436 -6.23850 217 ft 16 kts
2026-05-04 23:46 53.43482 -6.23935 214 ft 9 kts 280°
2026-05-04 23:46 53.43498 -6.24074 218 ft 43 kts 279°
2026-05-04 23:46 53.43552 -6.25108 218 ft 132 kts 275°
2026-05-04 23:47 53.43668 -6.26901 676 ft 160 kts 277°
2026-05-04 23:47 53.43812 -6.28790 1569 ft 167 kts 281°
2026-05-04 23:47 53.44120 -6.30712 2384 ft 178 kts 283°
2026-05-04 23:47 53.44247 -6.32890 3006 ft 197 kts 274°
2026-05-04 23:48 53.44285 -6.35295 3566 ft 214 kts 272°
2026-05-04 23:48 53.44340 -6.37799 4434 ft 213 kts 273°
2026-05-04 23:48 53.44433 -6.40264 5341 ft 212 kts 274°
2026-05-04 23:48 53.44554 -6.42748 6111 ft 216 kts 276°
2026-05-04 23:49 53.44693 -6.45272 6864 ft 218 kts 276°
2026-05-04 23:49 53.44844 -6.47831 7552 ft 222 kts 277°
2026-05-04 23:49 53.45195 -6.50429 7927 ft 240 kts 296°
2026-05-04 23:49 53.46290 -6.52649 8187 ft 258 kts 323°
2026-05-04 23:50 53.47964 -6.53811 8723 ft 265 kts 349°
2026-05-04 23:50 53.49794 -6.53927 9255 ft 270 kts 359°
2026-05-04 23:50 53.51670 -6.53646 9108 ft 265 kts 16°
2026-05-04 23:50 53.53154 -6.52149 9088 ft 245 kts 45°
2026-05-04 23:51 53.54019 -6.49690 9107 ft 260 kts 71°
2026-05-04 23:51 53.54169 -6.46490 9110 ft 289 kts 98°
2026-05-04 23:51 53.53747 -6.43166 9421 ft 291 kts 103°
2026-05-04 23:51 53.53282 -6.39836 10037 ft 294 kts 103°
2026-05-04 23:52 53.52835 -6.36463 10641 ft 296 kts 102°
2026-05-04 23:52 53.52565 -6.33023 11255 ft 299 kts 91°
2026-05-04 23:52 53.52528 -6.29505 11898 ft 302 kts 91°